Weather History for Santa Barbara, CA

Change the Weather History Date:

Wednesday, February 20, 2013

  Actual Average Record
Temperature  
Mean Temperature 53 °F 54 °F  
Max Temperature 64 °F 64 °F 85 °F (1995)
Min Temperature 42 °F 44 °F 32 °F (2006)
Degree Days  
Heating Degree Days 12 11  
Month to date heating degree days 246 232  
Since 1 July heating degree days 1386 1516  
Cooling Degree Days 0 0  
Month to date cooling degree days 0 0  
Year to date cooling degree days 0 0  
Growing Degree Days 3 (Base 50)    
Moisture  
Dew Point 33 °F    
Average Humidity 47    
Maximum Humidity 63    
Minimum Humidity 30    
Precipitation  
Precipitation 0.00 in 0.16 in 1.32 in (1979)
Month to date precipitation 0.05 2.81  
Year to date precipitation 2.09 6.31  
Since 1 July precipitation 8.16 12.02  
Sea Level Pressure  
Sea Level Pressure 29.86 in    
Wind  
Wind Speed 13 mph (NW)    
Max Wind Speed 25 mph    
Max Gust Speed 66 mph    
Visibility 10 miles    
Events      
T = Trace of Precipitation, MM = Missing Value Source: NWS Daily Summary

Daily Weather History Graph

Daily Weather History Graph

Search for Another Location

Airport:

Trip Planner

Search our weather history database for the weather conditions in past years. The results will help you decide how hot, cold, wet, or windy it might be!

Date:

Astronomy

Feb. 20, 2013 Rise Set
Actual Time 6:38 AM PST 5:47 PM PST
Civil Twilight 6:13 AM PST 6:13 PM PST
Nautical Twilight 5:43 AM PST 6:42 PM PST
Astronomical Twilight 5:14 AM PST 7:11 PM PST
Moon 1:20 PM PST (2/20) 2:55 AM PST (2/20)
Length of Visible Light 12h 00m
Length of Day
11h 09m
Waxing Gibbous, 77% of the Moon is Illuminated
Feb 20
Waxing Gibbous
Feb 25
Full
Mar 4
Last Quarter
Mar 11
New
Mar 19
First Quarter

Hourly Weather History & Observations

Time (PST) Temp. Windchill Dew Point Humidity Pressure Visibility Wind Dir Wind Speed Gust Speed Precip Events Conditions
12:53 AM 45.0 °F 40.6 °F 32.0 °F 60% 29.77 in 10.0 mi WNW 8.1 mph - N/A   Partly Cloudy
1:53 AM 45.0 °F 38.9 °F 32.0 °F 60% 29.76 in 10.0 mi West 12.7 mph - N/A   Clear
2:53 AM 44.1 °F 39.0 °F 32.0 °F 63% 29.77 in 10.0 mi WNW 9.2 mph - N/A   Clear
3:53 AM 45.0 °F 37.9 °F 27.0 °F 49% 29.76 in 10.0 mi NW 16.1 mph 23.0 mph N/A   Clear
4:53 AM 44.1 °F 39.0 °F 27.0 °F 51% 29.79 in 10.0 mi WNW 9.2 mph 19.6 mph N/A   Clear
5:53 AM 43.0 °F 36.8 °F 30.0 °F 60% 29.80 in 10.0 mi WNW 11.5 mph 18.4 mph N/A   Clear
6:53 AM 43.0 °F 36.4 °F 30.0 °F 60% 29.81 in 10.0 mi NW 12.7 mph - N/A   Clear
7:53 AM 48.0 °F - 30.0 °F 50% 29.83 in 10.0 mi Calm Calm - N/A   Clear
8:53 AM 51.1 °F - 32.0 °F 48% 29.83 in 10.0 mi WNW 9.2 mph 16.1 mph N/A   Clear
9:53 AM 54.0 °F - 30.9 °F 41% 29.84 in 10.0 mi West 11.5 mph 20.7 mph N/A   Clear
10:53 AM 57.0 °F - 30.0 °F 36% 29.86 in 10.0 mi West 10.4 mph 20.7 mph N/A   Clear
12:53 PM 62.1 °F - 32.0 °F 32% 29.84 in 10.0 mi West 13.8 mph 21.9 mph N/A   Clear
1:11 PM 62.6 °F - 30.2 °F 30% 29.84 in 10.0 mi WNW 13.8 mph 25.3 mph N/A   Clear
1:34 PM 62.6 °F - 30.2 °F 30% 29.84 in 10.0 mi NNW 16.1 mph 62.1 mph N/A   Clear
1:53 PM 62.1 °F - 32.0 °F 32% 29.85 in 10.0 mi WNW 16.1 mph 26.5 mph N/A   Clear
2:53 PM 63.0 °F - 30.0 °F 29% 29.86 in 10.0 mi NNW 13.8 mph 65.6 mph N/A   Clear
3:53 PM 62.1 °F - 33.1 °F 34% 29.86 in 10.0 mi NNW 25.3 mph 63.3 mph N/A   Clear
4:53 PM 59.0 °F - 36.0 °F 42% 29.89 in 10.0 mi NW 16.1 mph 28.8 mph N/A   Clear
5:53 PM 55.0 °F - 37.0 °F 51% 29.91 in 10.0 mi NW 16.1 mph - N/A   Clear
6:53 PM 54.0 °F - 37.9 °F 55% 29.93 in 10.0 mi NNW 15.0 mph - N/A   Clear
7:53 PM 51.1 °F - 39.9 °F 66% 29.96 in 10.0 mi NNW 13.8 mph - N/A   Clear
8:53 PM 51.1 °F - 39.9 °F 66% 29.97 in 9.0 mi North 16.1 mph - N/A   Clear
9:53 PM 51.1 °F - 39.0 °F 63% 29.99 in 10.0 mi WSW 8.1 mph - N/A   Clear
11:53 PM 43.0 °F - 37.0 °F 80% 30.01 in 9.0 mi Calm Calm - N/A   Clear